カタログに戻る

STARLINK-6148

運用中通信VLEO
NORAD 57117·PAYLOAD·🇺🇸 United States

打ち上げ Jun 23, 2023 から Cape Canaveral Space Force Station

Loading…

次のパス (今後24時間)

TLE

最新Source: CelesTrak SupGP

元期: Sep 15, 2026, 03:12 UTC

1 57117C 23090S   26258.13381944  .00001893  00000+0  68548-4 0  2584
2 57117  43.0010 291.3696 0001661 268.2341 283.8389 15.27582883    18

AllMySatでSTARLINK-6148をリアルタイム追跡

Download on the App Store